owner,sensor,date,latitude,longitude,vertical_datum,sea_water_temperature,qcFlag 
WAVCIS,ioos:station:WAVCIS:CSI16:2,2010-08-01T00:00:00Z,29.4012,-89.0355,10.0,30.969,11111222 
WAVCIS,ioos:station:WAVCIS:CSI16:2,2010-08-01T00:15:00Z,29.4012,-89.0355,10.0,31.027,11111222 
WAVCIS,ioos:station:WAVCIS:CSI16:2,2010-08-01T00:30:00Z,29.4012,-89.0355,10.0,31.17,11111222 
WAVCIS,ioos:station:WAVCIS:CSI16:2,2010-08-01T00:45:00Z,29.4012,-89.0355,10.0,31.318,11111222 
WAVCIS,ioos:station:WAVCIS:CSI16:2,2010-08-01T01:00:00Z,29.4012,-89.0355,10.0,31.296,11111222 
WAVCIS,ioos:station:WAVCIS:CSI16:2,2010-08-01T01:15:00Z,29.4012,-89.0355,10.0,31.391,11111222 
WAVCIS,ioos:station:WAVCIS:CSI16:2,2010-08-01T01:30:00Z,29.4012,-89.0355,10.0,31.376,11111222 
WAVCIS,ioos:station:WAVCIS:CSI16:2,2010-08-01T01:45:00Z,29.4012,-89.0355,10.0,31.388,11111222 
WAVCIS,ioos:station:WAVCIS:CSI16:2,2010-08-01T02:00:00Z,29.4012,-89.0355,10.0,31.381,11111222 
WAVCIS,ioos:station:WAVCIS:CSI16:2,2010-08-01T02:15:00Z,29.4012,-89.0355,10.0,31.265,11111222 
WAVCIS,ioos:station:WAVCIS:CSI16:2,2010-08-01T02:30:00Z,29.4012,-89.0355,10.0,31.234,11111222 
WAVCIS,ioos:station:WAVCIS:CSI16:2,2010-08-01T02:45:00Z,29.4012,-89.0355,10.0,31.208,11111222 
WAVCIS,ioos:station:WAVCIS:CSI16:2,2010-08-01T03:00:00Z,29.4012,-89.0355,10.0,31.352,11111222 
WAVCIS,ioos:station:WAVCIS:CSI16:2,2010-08-01T03:15:00Z,29.4012,-89.0355,10.0,31.372,11111222 
WAVCIS,ioos:station:WAVCIS:CSI16:2,2010-08-01T03:30:00Z,29.4012,-89.0355,10.0,31.474,11111222 
WAVCIS,ioos:station:WAVCIS:CSI16:2,2010-08-01T03:45:00Z,29.4012,-89.0355,10.0,31.576,11111222 
WAVCIS,ioos:station:WAVCIS:CSI16:2,2010-08-01T04:00:00Z,29.4012,-89.0355,10.0,31.373,11111222 
WAVCIS,ioos:station:WAVCIS:CSI16:2,2010-08-01T04:15:00Z,29.4012,-89.0355,10.0,31.361,11111222 
WAVCIS,ioos:station:WAVCIS:CSI16:2,2010-08-01T04:30:00Z,29.4012,-89.0355,10.0,31.355,11111222 
WAVCIS,ioos:station:WAVCIS:CSI16:2,2010-08-01T04:45:00Z,29.4012,-89.0355,10.0,31.561,11111222 
WAVCIS,ioos:station:WAVCIS:CSI16:2,2010-08-01T05:00:00Z,29.4012,-89.0355,10.0,31.552,11111222 
WAVCIS,ioos:station:WAVCIS:CSI16:2,2010-08-01T05:15:00Z,29.4012,-89.0355,10.0,30.017,11111222 
WAVCIS,ioos:station:WAVCIS:CSI16:2,2010-08-01T05:30:00Z,29.4012,-89.0355,10.0,28.655,11111222 
WAVCIS,ioos:station:WAVCIS:CSI16:2,2010-08-01T05:45:00Z,29.4012,-89.0355,10.0,27.989,11111222 
WAVCIS,ioos:station:WAVCIS:CSI16:2,2010-08-01T06:00:00Z,29.4012,-89.0355,10.0,27.756,11111222 
WAVCIS,ioos:station:WAVCIS:CSI16:2,2010-08-01T06:15:00Z,29.4012,-89.0355,10.0,27.678,11111222 
WAVCIS,ioos:station:WAVCIS:CSI16:2,2010-08-01T06:30:00Z,29.4012,-89.0355,10.0,27.794,11111222 
WAVCIS,ioos:station:WAVCIS:CSI16:2,2010-08-01T06:45:00Z,29.4012,-89.0355,10.0,28.757,11111222 
WAVCIS,ioos:station:WAVCIS:CSI16:2,2010-08-01T07:00:00Z,29.4012,-89.0355,10.0,28.308,11111222 
WAVCIS,ioos:station:WAVCIS:CSI16:2,2010-08-01T07:15:00Z,29.4012,-89.0355,10.0,28.415,11111222 
WAVCIS,ioos:station:WAVCIS:CSI16:2,2010-08-01T07:30:00Z,29.4012,-89.0355,10.0,28.298,11111222 
WAVCIS,ioos:station:WAVCIS:CSI16:2,2010-08-01T07:45:00Z,29.4012,-89.0355,10.0,28.099,11111222 
WAVCIS,ioos:station:WAVCIS:CSI16:2,2010-08-01T08:00:00Z,29.4012,-89.0355,10.0,28.075,11111222 
WAVCIS,ioos:station:WAVCIS:CSI16:2,2010-08-01T08:15:00Z,29.4012,-89.0355,10.0,28.042,11111222 
WAVCIS,ioos:station:WAVCIS:CSI16:2,2010-08-01T08:30:00Z,29.4012,-89.0355,10.0,27.558,11111222 
WAVCIS,ioos:station:WAVCIS:CSI16:2,2010-08-01T08:45:00Z,29.4012,-89.0355,10.0,27.613,11111222 
WAVCIS,ioos:station:WAVCIS:CSI16:2,2010-08-01T09:00:00Z,29.4012,-89.0355,10.0,27.814,11111222 
WAVCIS,ioos:station:WAVCIS:CSI16:2,2010-08-01T09:15:00Z,29.4012,-89.0355,10.0,27.853,11111222 
WAVCIS,ioos:station:WAVCIS:CSI16:2,2010-08-01T09:30:00Z,29.4012,-89.0355,10.0,27.971,11111222 
WAVCIS,ioos:station:WAVCIS:CSI16:2,2010-08-01T09:45:00Z,29.4012,-89.0355,10.0,27.703,11111222 
WAVCIS,ioos:station:WAVCIS:CSI16:2,2010-08-01T10:00:00Z,29.4012,-89.0355,10.0,27.676,11111222 
WAVCIS,ioos:station:WAVCIS:CSI16:2,2010-08-01T10:15:00Z,29.4012,-89.0355,10.0,27.539,11111222 
WAVCIS,ioos:station:WAVCIS:CSI16:2,2010-08-01T10:30:00Z,29.4012,-89.0355,10.0,27.43,11111222 
WAVCIS,ioos:station:WAVCIS:CSI16:2,2010-08-01T10:45:00Z,29.4012,-89.0355,10.0,27.382,11111222 
WAVCIS,ioos:station:WAVCIS:CSI16:2,2010-08-01T11:00:00Z,29.4012,-89.0355,10.0,27.356,11111222 
WAVCIS,ioos:station:WAVCIS:CSI16:2,2010-08-01T11:15:00Z,29.4012,-89.0355,10.0,27.444,11111222 
WAVCIS,ioos:station:WAVCIS:CSI16:2,2010-08-01T11:30:00Z,29.4012,-89.0355,10.0,27.425,11111222 
WAVCIS,ioos:station:WAVCIS:CSI16:2,2010-08-01T11:45:00Z,29.4012,-89.0355,10.0,27.528,11111222 
WAVCIS,ioos:station:WAVCIS:CSI16:2,2010-08-01T12:00:00Z,29.4012,-89.0355,10.0,27.484,11111222 
WAVCIS,ioos:station:WAVCIS:CSI16:2,2010-08-01T12:15:00Z,29.4012,-89.0355,10.0,27.656,11111222 
WAVCIS,ioos:station:WAVCIS:CSI16:2,2010-08-01T12:30:00Z,29.4012,-89.0355,10.0,27.961,11111222 
WAVCIS,ioos:station:WAVCIS:CSI16:2,2010-08-01T12:45:00Z,29.4012,-89.0355,10.0,27.941,11111222 
WAVCIS,ioos:station:WAVCIS:CSI16:2,2010-08-01T13:00:00Z,29.4012,-89.0355,10.0,28.33,11111222 
WAVCIS,ioos:station:WAVCIS:CSI16:2,2010-08-01T13:15:00Z,29.4012,-89.0355,10.0,28.559,11111222 
WAVCIS,ioos:station:WAVCIS:CSI16:2,2010-08-01T13:30:00Z,29.4012,-89.0355,10.0,28.577,11111222 
WAVCIS,ioos:station:WAVCIS:CSI16:2,2010-08-01T13:45:00Z,29.4012,-89.0355,10.0,28.52,11111222 
WAVCIS,ioos:station:WAVCIS:CSI16:2,2010-08-01T14:00:00Z,29.4012,-89.0355,10.0,28.579,11111222 
WAVCIS,ioos:station:WAVCIS:CSI16:2,2010-08-01T14:15:00Z,29.4012,-89.0355,10.0,28.532,11111222 
WAVCIS,ioos:station:WAVCIS:CSI16:2,2010-08-01T14:30:00Z,29.4012,-89.0355,10.0,28.401,11111222 
WAVCIS,ioos:station:WAVCIS:CSI16:2,2010-08-01T14:45:00Z,29.4012,-89.0355,10.0,28.38,11111222 
WAVCIS,ioos:station:WAVCIS:CSI16:2,2010-08-01T15:00:00Z,29.4012,-89.0355,10.0,28.346,11111222 
WAVCIS,ioos:station:WAVCIS:CSI16:2,2010-08-01T15:15:00Z,29.4012,-89.0355,10.0,28.272,11111222 
WAVCIS,ioos:station:WAVCIS:CSI16:2,2010-08-01T15:30:00Z,29.4012,-89.0355,10.0,28.24,11111222 
WAVCIS,ioos:station:WAVCIS:CSI16:2,2010-08-01T15:45:00Z,29.4012,-89.0355,10.0,28.329,11111222 
WAVCIS,ioos:station:WAVCIS:CSI16:2,2010-08-01T16:00:00Z,29.4012,-89.0355,10.0,28.246,11111222 
WAVCIS,ioos:station:WAVCIS:CSI16:2,2010-08-01T16:15:00Z,29.4012,-89.0355,10.0,28.209,11111222 
WAVCIS,ioos:station:WAVCIS:CSI16:2,2010-08-01T16:30:00Z,29.4012,-89.0355,10.0,28.233,11111222 
WAVCIS,ioos:station:WAVCIS:CSI16:2,2010-08-01T16:45:00Z,29.4012,-89.0355,10.0,28.833,11111222 
WAVCIS,ioos:station:WAVCIS:CSI16:2,2010-08-01T17:00:00Z,29.4012,-89.0355,10.0,28.601,11111222 
WAVCIS,ioos:station:WAVCIS:CSI16:2,2010-08-01T17:15:00Z,29.4012,-89.0355,10.0,28.584,11111222 
WAVCIS,ioos:station:WAVCIS:CSI16:2,2010-08-01T17:30:00Z,29.4012,-89.0355,10.0,28.516,11111222 
WAVCIS,ioos:station:WAVCIS:CSI16:2,2010-08-01T17:45:00Z,29.4012,-89.0355,10.0,28.695,11111222 
WAVCIS,ioos:station:WAVCIS:CSI16:2,2010-08-01T18:00:00Z,29.4012,-89.0355,10.0,28.768,11111222 
WAVCIS,ioos:station:WAVCIS:CSI16:2,2010-08-01T18:15:00Z,29.4012,-89.0355,10.0,29.268,11111222 
WAVCIS,ioos:station:WAVCIS:CSI16:2,2010-08-01T18:30:00Z,29.4012,-89.0355,10.0,29.387,11111222 
WAVCIS,ioos:station:WAVCIS:CSI16:2,2010-08-01T18:45:00Z,29.4012,-89.0355,10.0,29.304,11111222 
WAVCIS,ioos:station:WAVCIS:CSI16:2,2010-08-01T19:00:00Z,29.4012,-89.0355,10.0,29.34,11111222 
WAVCIS,ioos:station:WAVCIS:CSI16:2,2010-08-01T19:15:00Z,29.4012,-89.0355,10.0,29.325,11111222 
WAVCIS,ioos:station:WAVCIS:CSI16:2,2010-08-01T19:30:00Z,29.4012,-89.0355,10.0,29.636,11111222 
WAVCIS,ioos:station:WAVCIS:CSI16:2,2010-08-01T19:45:00Z,29.4012,-89.0355,10.0,29.882,11111222 
WAVCIS,ioos:station:WAVCIS:CSI16:2,2010-08-01T20:00:00Z,29.4012,-89.0355,10.0,30.124,11111222 
WAVCIS,ioos:station:WAVCIS:CSI16:2,2010-08-01T20:15:00Z,29.4012,-89.0355,10.0,30.0,11111222 
WAVCIS,ioos:station:WAVCIS:CSI16:2,2010-08-01T20:30:00Z,29.4012,-89.0355,10.0,29.926,11111222 
WAVCIS,ioos:station:WAVCIS:CSI16:2,2010-08-01T20:45:00Z,29.4012,-89.0355,10.0,29.959,11111222 
WAVCIS,ioos:station:WAVCIS:CSI16:2,2010-08-01T21:00:00Z,29.4012,-89.0355,10.0,30.117,11111222 
WAVCIS,ioos:station:WAVCIS:CSI16:2,2010-08-01T21:15:00Z,29.4012,-89.0355,10.0,30.055,11111222 
WAVCIS,ioos:station:WAVCIS:CSI16:2,2010-08-01T21:30:00Z,29.4012,-89.0355,10.0,29.99,11111222 
WAVCIS,ioos:station:WAVCIS:CSI16:2,2010-08-01T21:45:00Z,29.4012,-89.0355,10.0,30.046,11111222 
WAVCIS,ioos:station:WAVCIS:CSI16:2,2010-08-01T22:00:00Z,29.4012,-89.0355,10.0,30.069,11111222 
WAVCIS,ioos:station:WAVCIS:CSI16:2,2010-08-01T22:15:00Z,29.4012,-89.0355,10.0,30.059,11111222 
WAVCIS,ioos:station:WAVCIS:CSI16:2,2010-08-01T22:30:00Z,29.4012,-89.0355,10.0,30.018,11111222 
WAVCIS,ioos:station:WAVCIS:CSI16:2,2010-08-01T22:45:00Z,29.4012,-89.0355,10.0,30.045,11111222 
WAVCIS,ioos:station:WAVCIS:CSI16:2,2010-08-01T23:00:00Z,29.4012,-89.0355,10.0,30.018,11111222 
WAVCIS,ioos:station:WAVCIS:CSI16:2,2010-08-01T23:15:00Z,29.4012,-89.0355,10.0,29.904,11111222 
WAVCIS,ioos:station:WAVCIS:CSI16:2,2010-08-01T23:30:00Z,29.4012,-89.0355,10.0,29.704,11111222 
WAVCIS,ioos:station:WAVCIS:CSI16:2,2010-08-01T23:45:00Z,29.4012,-89.0355,10.0,29.762,11111222 
WAVCIS,ioos:station:WAVCIS:CSI16:2,2010-08-02T00:00:00Z,29.4012,-89.0355,10.0,29.847,11111222 
WAVCIS,ioos:station:WAVCIS:CSI16:2,2010-08-02T00:15:00Z,29.4012,-89.0355,10.0,29.697,11111222 
WAVCIS,ioos:station:WAVCIS:CSI16:2,2010-08-02T00:30:00Z,29.4012,-89.0355,10.0,29.77,11111222 
WAVCIS,ioos:station:WAVCIS:CSI16:2,2010-08-02T00:45:00Z,29.4012,-89.0355,10.0,29.952,11111222 
WAVCIS,ioos:station:WAVCIS:CSI16:2,2010-08-02T01:00:00Z,29.4012,-89.0355,10.0,29.933,11111222 
WAVCIS,ioos:station:WAVCIS:CSI16:2,2010-08-02T01:15:00Z,29.4012,-89.0355,10.0,29.95,11111222 
WAVCIS,ioos:station:WAVCIS:CSI16:2,2010-08-02T01:30:00Z,29.4012,-89.0355,10.0,30.04,11111222 
WAVCIS,ioos:station:WAVCIS:CSI16:2,2010-08-02T01:45:00Z,29.4012,-89.0355,10.0,30.525,11111222 
WAVCIS,ioos:station:WAVCIS:CSI16:2,2010-08-02T02:00:00Z,29.4012,-89.0355,10.0,31.001,11111222 
WAVCIS,ioos:station:WAVCIS:CSI16:2,2010-08-02T02:15:00Z,29.4012,-89.0355,10.0,31.796,11111222 
WAVCIS,ioos:station:WAVCIS:CSI16:2,2010-08-02T02:30:00Z,29.4012,-89.0355,10.0,31.944,11111222 
WAVCIS,ioos:station:WAVCIS:CSI16:2,2010-08-02T02:45:00Z,29.4012,-89.0355,10.0,32.127,11111222 
WAVCIS,ioos:station:WAVCIS:CSI16:2,2010-08-02T03:00:00Z,29.4012,-89.0355,10.0,31.911,11111222 
WAVCIS,ioos:station:WAVCIS:CSI16:2,2010-08-02T03:15:00Z,29.4012,-89.0355,10.0,31.886,11111222 
WAVCIS,ioos:station:WAVCIS:CSI16:2,2010-08-02T03:30:00Z,29.4012,-89.0355,10.0,31.683,11111222 
WAVCIS,ioos:station:WAVCIS:CSI16:2,2010-08-02T03:45:00Z,29.4012,-89.0355,10.0,31.708,11111222 
WAVCIS,ioos:station:WAVCIS:CSI16:2,2010-08-02T04:00:00Z,29.4012,-89.0355,10.0,31.535,11111222 
WAVCIS,ioos:station:WAVCIS:CSI16:2,2010-08-02T04:15:00Z,29.4012,-89.0355,10.0,31.734,11111222 
WAVCIS,ioos:station:WAVCIS:CSI16:2,2010-08-02T04:30:00Z,29.4012,-89.0355,10.0,31.747,11111222 
WAVCIS,ioos:station:WAVCIS:CSI16:2,2010-08-02T04:45:00Z,29.4012,-89.0355,10.0,31.781,11111222 
WAVCIS,ioos:station:WAVCIS:CSI16:2,2010-08-02T05:00:00Z,29.4012,-89.0355,10.0,31.841,11111222 
WAVCIS,ioos:station:WAVCIS:CSI16:2,2010-08-02T05:15:00Z,29.4012,-89.0355,10.0,31.801,11111222 
WAVCIS,ioos:station:WAVCIS:CSI16:2,2010-08-02T05:30:00Z,29.4012,-89.0355,10.0,31.711,11111222 
WAVCIS,ioos:station:WAVCIS:CSI16:2,2010-08-02T05:45:00Z,29.4012,-89.0355,10.0,28.566,11111222 
WAVCIS,ioos:station:WAVCIS:CSI16:2,2010-08-02T06:00:00Z,29.4012,-89.0355,10.0,28.283,11111222 
WAVCIS,ioos:station:WAVCIS:CSI16:2,2010-08-02T06:15:00Z,29.4012,-89.0355,10.0,27.91,11111222 
WAVCIS,ioos:station:WAVCIS:CSI16:2,2010-08-02T06:30:00Z,29.4012,-89.0355,10.0,27.519,11111222 
WAVCIS,ioos:station:WAVCIS:CSI16:2,2010-08-02T06:45:00Z,29.4012,-89.0355,10.0,27.129,11111222 
WAVCIS,ioos:station:WAVCIS:CSI16:2,2010-08-02T07:00:00Z,29.4012,-89.0355,10.0,27.17,11111222 
WAVCIS,ioos:station:WAVCIS:CSI16:2,2010-08-02T07:15:00Z,29.4012,-89.0355,10.0,27.056,11111222 
WAVCIS,ioos:station:WAVCIS:CSI16:2,2010-08-02T07:30:00Z,29.4012,-89.0355,10.0,26.841,11111222 
WAVCIS,ioos:station:WAVCIS:CSI16:2,2010-08-02T07:45:00Z,29.4012,-89.0355,10.0,26.766,11111222 
WAVCIS,ioos:station:WAVCIS:CSI16:2,2010-08-02T08:00:00Z,29.4012,-89.0355,10.0,26.729,11111222 
WAVCIS,ioos:station:WAVCIS:CSI16:2,2010-08-02T08:15:00Z,29.4012,-89.0355,10.0,26.714,11111222 
WAVCIS,ioos:station:WAVCIS:CSI16:2,2010-08-02T08:30:00Z,29.4012,-89.0355,10.0,26.666,11111222 
WAVCIS,ioos:station:WAVCIS:CSI16:2,2010-08-02T08:45:00Z,29.4012,-89.0355,10.0,27.214,11111222 
WAVCIS,ioos:station:WAVCIS:CSI16:2,2010-08-02T09:00:00Z,29.4012,-89.0355,10.0,27.318,11111222 
WAVCIS,ioos:station:WAVCIS:CSI16:2,2010-08-02T09:15:00Z,29.4012,-89.0355,10.0,27.258,11111222 
WAVCIS,ioos:station:WAVCIS:CSI16:2,2010-08-02T09:30:00Z,29.4012,-89.0355,10.0,27.568,11111222 
WAVCIS,ioos:station:WAVCIS:CSI16:2,2010-08-02T09:45:00Z,29.4012,-89.0355,10.0,27.678,11111222 
WAVCIS,ioos:station:WAVCIS:CSI16:2,2010-08-02T10:00:00Z,29.4012,-89.0355,10.0,27.86,11111222 
WAVCIS,ioos:station:WAVCIS:CSI16:2,2010-08-02T10:15:00Z,29.4012,-89.0355,10.0,27.946,11111222 
WAVCIS,ioos:station:WAVCIS:CSI16:2,2010-08-02T10:30:00Z,29.4012,-89.0355,10.0,27.976,11111222 
WAVCIS,ioos:station:WAVCIS:CSI16:2,2010-08-02T10:45:00Z,29.4012,-89.0355,10.0,28.136,11111222 
WAVCIS,ioos:station:WAVCIS:CSI16:2,2010-08-02T11:00:00Z,29.4012,-89.0355,10.0,27.882,11111222 
WAVCIS,ioos:station:WAVCIS:CSI16:2,2010-08-02T11:15:00Z,29.4012,-89.0355,10.0,27.878,11111222 
WAVCIS,ioos:station:WAVCIS:CSI16:2,2010-08-02T11:30:00Z,29.4012,-89.0355,10.0,27.875,11111222 
WAVCIS,ioos:station:WAVCIS:CSI16:2,2010-08-02T11:45:00Z,29.4012,-89.0355,10.0,27.921,11111222 
WAVCIS,ioos:station:WAVCIS:CSI16:2,2010-08-02T12:00:00Z,29.4012,-89.0355,10.0,27.949,11111222 
WAVCIS,ioos:station:WAVCIS:CSI16:2,2010-08-02T12:15:00Z,29.4012,-89.0355,10.0,27.98,11111222 
WAVCIS,ioos:station:WAVCIS:CSI16:2,2010-08-02T12:30:00Z,29.4012,-89.0355,10.0,27.995,11111222 
WAVCIS,ioos:station:WAVCIS:CSI16:2,2010-08-02T12:45:00Z,29.4012,-89.0355,10.0,28.111,11111222 
WAVCIS,ioos:station:WAVCIS:CSI16:2,2010-08-02T13:00:00Z,29.4012,-89.0355,10.0,28.309,11111222 
WAVCIS,ioos:station:WAVCIS:CSI16:2,2010-08-02T13:15:00Z,29.4012,-89.0355,10.0,28.489,11111222 
WAVCIS,ioos:station:WAVCIS:CSI16:2,2010-08-02T13:30:00Z,29.4012,-89.0355,10.0,28.577,11111222 
WAVCIS,ioos:station:WAVCIS:CSI16:2,2010-08-02T13:45:00Z,29.4012,-89.0355,10.0,28.695,11111222 
WAVCIS,ioos:station:WAVCIS:CSI16:2,2010-08-02T14:00:00Z,29.4012,-89.0355,10.0,28.714,11111222 
WAVCIS,ioos:station:WAVCIS:CSI16:2,2010-08-02T14:15:00Z,29.4012,-89.0355,10.0,28.666,11111222 
WAVCIS,ioos:station:WAVCIS:CSI16:2,2010-08-02T14:30:00Z,29.4012,-89.0355,10.0,28.722,11111222 
WAVCIS,ioos:station:WAVCIS:CSI16:2,2010-08-02T14:45:00Z,29.4012,-89.0355,10.0,28.715,11111222 
WAVCIS,ioos:station:WAVCIS:CSI16:2,2010-08-02T15:00:00Z,29.4012,-89.0355,10.0,28.767,11111222 
WAVCIS,ioos:station:WAVCIS:CSI16:2,2010-08-02T15:15:00Z,29.4012,-89.0355,10.0,28.826,11111222 
WAVCIS,ioos:station:WAVCIS:CSI16:2,2010-08-02T15:30:00Z,29.4012,-89.0355,10.0,28.856,11111222 
WAVCIS,ioos:station:WAVCIS:CSI16:2,2010-08-02T15:45:00Z,29.4012,-89.0355,10.0,28.873,11111222 
WAVCIS,ioos:station:WAVCIS:CSI16:2,2010-08-02T16:00:00Z,29.4012,-89.0355,10.0,28.924,11111222 
WAVCIS,ioos:station:WAVCIS:CSI16:2,2010-08-02T16:15:00Z,29.4012,-89.0355,10.0,28.946,11111222 
WAVCIS,ioos:station:WAVCIS:CSI16:2,2010-08-02T16:30:00Z,29.4012,-89.0355,10.0,28.966,11111222 
WAVCIS,ioos:station:WAVCIS:CSI16:2,2010-08-02T16:45:00Z,29.4012,-89.0355,10.0,29.036,11111222 
WAVCIS,ioos:station:WAVCIS:CSI16:2,2010-08-02T17:00:00Z,29.4012,-89.0355,10.0,29.046,11111222 
WAVCIS,ioos:station:WAVCIS:CSI16:2,2010-08-02T17:15:00Z,29.4012,-89.0355,10.0,29.166,11111222 
WAVCIS,ioos:station:WAVCIS:CSI16:2,2010-08-02T17:30:00Z,29.4012,-89.0355,10.0,29.361,11111222 
WAVCIS,ioos:station:WAVCIS:CSI16:2,2010-08-02T17:45:00Z,29.4012,-89.0355,10.0,29.253,11111222 
WAVCIS,ioos:station:WAVCIS:CSI16:2,2010-08-02T18:00:00Z,29.4012,-89.0355,10.0,29.322,11111222 
WAVCIS,ioos:station:WAVCIS:CSI16:2,2010-08-02T18:15:00Z,29.4012,-89.0355,10.0,29.597,11111222 
WAVCIS,ioos:station:WAVCIS:CSI16:2,2010-08-02T18:30:00Z,29.4012,-89.0355,10.0,29.538,11111222 
WAVCIS,ioos:station:WAVCIS:CSI16:2,2010-08-02T18:45:00Z,29.4012,-89.0355,10.0,29.458,11111222 
WAVCIS,ioos:station:WAVCIS:CSI16:2,2010-08-02T19:00:00Z,29.4012,-89.0355,10.0,29.625,11111222 
WAVCIS,ioos:station:WAVCIS:CSI16:2,2010-08-02T19:15:00Z,29.4012,-89.0355,10.0,29.539,11111222 
WAVCIS,ioos:station:WAVCIS:CSI16:2,2010-08-02T19:30:00Z,29.4012,-89.0355,10.0,29.459,11111222 
WAVCIS,ioos:station:WAVCIS:CSI16:2,2010-08-02T19:45:00Z,29.4012,-89.0355,10.0,29.499,11111222 
WAVCIS,ioos:station:WAVCIS:CSI16:2,2010-08-02T20:00:00Z,29.4012,-89.0355,10.0,29.441,11111222 
WAVCIS,ioos:station:WAVCIS:CSI16:2,2010-08-02T20:15:00Z,29.4012,-89.0355,10.0,29.49,11111222 
WAVCIS,ioos:station:WAVCIS:CSI16:2,2010-08-02T20:30:00Z,29.4012,-89.0355,10.0,29.483,11111222 
WAVCIS,ioos:station:WAVCIS:CSI16:2,2010-08-02T20:45:00Z,29.4012,-89.0355,10.0,29.524,11111222 
WAVCIS,ioos:station:WAVCIS:CSI16:2,2010-08-02T21:00:00Z,29.4012,-89.0355,10.0,29.636,11111222 
WAVCIS,ioos:station:WAVCIS:CSI16:2,2010-08-02T21:15:00Z,29.4012,-89.0355,10.0,29.627,11111222 
WAVCIS,ioos:station:WAVCIS:CSI16:2,2010-08-02T21:30:00Z,29.4012,-89.0355,10.0,29.687,11111222 
WAVCIS,ioos:station:WAVCIS:CSI16:2,2010-08-02T21:45:00Z,29.4012,-89.0355,10.0,29.688,11111222 
WAVCIS,ioos:station:WAVCIS:CSI16:2,2010-08-02T22:00:00Z,29.4012,-89.0355,10.0,29.708,11111222 
WAVCIS,ioos:station:WAVCIS:CSI16:2,2010-08-02T22:15:00Z,29.4012,-89.0355,10.0,29.751,11111222 
WAVCIS,ioos:station:WAVCIS:CSI16:2,2010-08-02T22:30:00Z,29.4012,-89.0355,10.0,29.748,11111222 
WAVCIS,ioos:station:WAVCIS:CSI16:2,2010-08-02T22:45:00Z,29.4012,-89.0355,10.0,29.763,11111222 
WAVCIS,ioos:station:WAVCIS:CSI16:2,2010-08-02T23:00:00Z,29.4012,-89.0355,10.0,29.909,11111222 
WAVCIS,ioos:station:WAVCIS:CSI16:2,2010-08-02T23:15:00Z,29.4012,-89.0355,10.0,29.937,11111222 
WAVCIS,ioos:station:WAVCIS:CSI16:2,2010-08-02T23:30:00Z,29.4012,-89.0355,10.0,29.969,11111222 
WAVCIS,ioos:station:WAVCIS:CSI16:2,2010-08-02T23:45:00Z,29.4012,-89.0355,10.0,30.07,11111222 
WAVCIS,ioos:station:WAVCIS:CSI16:2,2010-08-03T00:00:00Z,29.4012,-89.0355,10.0,30.023,11111222 
WAVCIS,ioos:station:WAVCIS:CSI16:2,2010-08-03T00:15:00Z,29.4012,-89.0355,10.0,30.239,11111222 
WAVCIS,ioos:station:WAVCIS:CSI16:2,2010-08-03T00:30:00Z,29.4012,-89.0355,10.0,30.32,11111222 
WAVCIS,ioos:station:WAVCIS:CSI16:2,2010-08-03T00:45:00Z,29.4012,-89.0355,10.0,30.293,11111222 
WAVCIS,ioos:station:WAVCIS:CSI16:2,2010-08-03T01:00:00Z,29.4012,-89.0355,10.0,30.442,11111222 
WAVCIS,ioos:station:WAVCIS:CSI16:2,2010-08-03T01:15:00Z,29.4012,-89.0355,10.0,30.434,11111222 
WAVCIS,ioos:station:WAVCIS:CSI16:2,2010-08-03T01:30:00Z,29.4012,-89.0355,10.0,30.597,11111222 
WAVCIS,ioos:station:WAVCIS:CSI16:2,2010-08-03T01:45:00Z,29.4012,-89.0355,10.0,30.578,11111222 
WAVCIS,ioos:station:WAVCIS:CSI16:2,2010-08-03T02:00:00Z,29.4012,-89.0355,10.0,30.594,11111222 
WAVCIS,ioos:station:WAVCIS:CSI16:2,2010-08-03T02:15:00Z,29.4012,-89.0355,10.0,30.578,11111222 
WAVCIS,ioos:station:WAVCIS:CSI16:2,2010-08-03T02:30:00Z,29.4012,-89.0355,10.0,30.517,11111222 
WAVCIS,ioos:station:WAVCIS:CSI16:2,2010-08-03T02:45:00Z,29.4012,-89.0355,10.0,30.503,11111222 
WAVCIS,ioos:station:WAVCIS:CSI16:2,2010-08-03T03:00:00Z,29.4012,-89.0355,10.0,30.493,11111222 
WAVCIS,ioos:station:WAVCIS:CSI16:2,2010-08-03T03:15:00Z,29.4012,-89.0355,10.0,30.361,11111222 
WAVCIS,ioos:station:WAVCIS:CSI16:2,2010-08-03T03:30:00Z,29.4012,-89.0355,10.0,30.145,11111222 
WAVCIS,ioos:station:WAVCIS:CSI16:2,2010-08-03T03:45:00Z,29.4012,-89.0355,10.0,29.488,11111222 
WAVCIS,ioos:station:WAVCIS:CSI16:2,2010-08-03T04:00:00Z,29.4012,-89.0355,10.0,29.575,11111222 
WAVCIS,ioos:station:WAVCIS:CSI16:2,2010-08-03T04:15:00Z,29.4012,-89.0355,10.0,29.965,11111222 
WAVCIS,ioos:station:WAVCIS:CSI16:2,2010-08-03T04:30:00Z,29.4012,-89.0355,10.0,28.86,11111222 
WAVCIS,ioos:station:WAVCIS:CSI16:2,2010-08-03T04:45:00Z,29.4012,-89.0355,10.0,28.608,11111222 
WAVCIS,ioos:station:WAVCIS:CSI16:2,2010-08-03T05:00:00Z,29.4012,-89.0355,10.0,28.615,11111222 
WAVCIS,ioos:station:WAVCIS:CSI16:2,2010-08-03T05:15:00Z,29.4012,-89.0355,10.0,28.495,11111222 
WAVCIS,ioos:station:WAVCIS:CSI16:2,2010-08-03T05:30:00Z,29.4012,-89.0355,10.0,28.28,11111222 
WAVCIS,ioos:station:WAVCIS:CSI16:2,2010-08-03T05:45:00Z,29.4012,-89.0355,10.0,28.093,11111222 
WAVCIS,ioos:station:WAVCIS:CSI16:2,2010-08-03T06:00:00Z,29.4012,-89.0355,10.0,27.554,11111222 
WAVCIS,ioos:station:WAVCIS:CSI16:2,2010-08-03T06:15:00Z,29.4012,-89.0355,10.0,27.308,11111222 
WAVCIS,ioos:station:WAVCIS:CSI16:2,2010-08-03T06:30:00Z,29.4012,-89.0355,10.0,27.154,11111222 
WAVCIS,ioos:station:WAVCIS:CSI16:2,2010-08-03T06:45:00Z,29.4012,-89.0355,10.0,27.03,11111222 
WAVCIS,ioos:station:WAVCIS:CSI16:2,2010-08-03T07:00:00Z,29.4012,-89.0355,10.0,27.402,11111222 
WAVCIS,ioos:station:WAVCIS:CSI16:2,2010-08-03T07:15:00Z,29.4012,-89.0355,10.0,27.131,11111222 
WAVCIS,ioos:station:WAVCIS:CSI16:2,2010-08-03T07:30:00Z,29.4012,-89.0355,10.0,27.015,11111222 
WAVCIS,ioos:station:WAVCIS:CSI16:2,2010-08-03T07:45:00Z,29.4012,-89.0355,10.0,26.982,11111222 
WAVCIS,ioos:station:WAVCIS:CSI16:2,2010-08-03T08:00:00Z,29.4012,-89.0355,10.0,26.915,11111222 
WAVCIS,ioos:station:WAVCIS:CSI16:2,2010-08-03T08:15:00Z,29.4012,-89.0355,10.0,27.111,11111222 
WAVCIS,ioos:station:WAVCIS:CSI16:2,2010-08-03T08:30:00Z,29.4012,-89.0355,10.0,27.18,11111222 
WAVCIS,ioos:station:WAVCIS:CSI16:2,2010-08-03T08:45:00Z,29.4012,-89.0355,10.0,27.381,11111222 
WAVCIS,ioos:station:WAVCIS:CSI16:2,2010-08-03T09:00:00Z,29.4012,-89.0355,10.0,27.347,11111222 
WAVCIS,ioos:station:WAVCIS:CSI16:2,2010-08-03T09:15:00Z,29.4012,-89.0355,10.0,27.184,11111222 
WAVCIS,ioos:station:WAVCIS:CSI16:2,2010-08-03T09:30:00Z,29.4012,-89.0355,10.0,27.305,11111222 
WAVCIS,ioos:station:WAVCIS:CSI16:2,2010-08-03T09:45:00Z,29.4012,-89.0355,10.0,27.324,11111222 
WAVCIS,ioos:station:WAVCIS:CSI16:2,2010-08-03T10:00:00Z,29.4012,-89.0355,10.0,27.222,11111222 
WAVCIS,ioos:station:WAVCIS:CSI16:2,2010-08-03T10:15:00Z,29.4012,-89.0355,10.0,27.346,11111222 
WAVCIS,ioos:station:WAVCIS:CSI16:2,2010-08-03T10:30:00Z,29.4012,-89.0355,10.0,27.514,11111222 
WAVCIS,ioos:station:WAVCIS:CSI16:2,2010-08-03T10:45:00Z,29.4012,-89.0355,10.0,27.551,11111222 
WAVCIS,ioos:station:WAVCIS:CSI16:2,2010-08-03T11:00:00Z,29.4012,-89.0355,10.0,27.433,11111222 
WAVCIS,ioos:station:WAVCIS:CSI16:2,2010-08-03T11:15:00Z,29.4012,-89.0355,10.0,27.362,11111222 
WAVCIS,ioos:station:WAVCIS:CSI16:2,2010-08-03T11:30:00Z,29.4012,-89.0355,10.0,27.19,11111222 
WAVCIS,ioos:station:WAVCIS:CSI16:2,2010-08-03T11:45:00Z,29.4012,-89.0355,10.0,26.965,11111222 
WAVCIS,ioos:station:WAVCIS:CSI16:2,2010-08-03T12:00:00Z,29.4012,-89.0355,10.0,27.379,11111222 
WAVCIS,ioos:station:WAVCIS:CSI16:2,2010-08-03T12:15:00Z,29.4012,-89.0355,10.0,27.434,11111222 
WAVCIS,ioos:station:WAVCIS:CSI16:2,2010-08-03T12:30:00Z,29.4012,-89.0355,10.0,27.198,11111222 
WAVCIS,ioos:station:WAVCIS:CSI16:2,2010-08-03T12:45:00Z,29.4012,-89.0355,10.0,27.398,11111222 
WAVCIS,ioos:station:WAVCIS:CSI16:2,2010-08-03T13:00:00Z,29.4012,-89.0355,10.0,27.423,11111222 
WAVCIS,ioos:station:WAVCIS:CSI16:2,2010-08-03T13:15:00Z,29.4012,-89.0355,10.0,27.394,11111222 
WAVCIS,ioos:station:WAVCIS:CSI16:2,2010-08-03T13:30:00Z,29.4012,-89.0355,10.0,27.461,11111222 
WAVCIS,ioos:station:WAVCIS:CSI16:2,2010-08-03T13:45:00Z,29.4012,-89.0355,10.0,27.504,11111222 
WAVCIS,ioos:station:WAVCIS:CSI16:2,2010-08-03T14:00:00Z,29.4012,-89.0355,10.0,27.523,11111222 
WAVCIS,ioos:station:WAVCIS:CSI16:2,2010-08-03T14:15:00Z,29.4012,-89.0355,10.0,27.641,11111222 
WAVCIS,ioos:station:WAVCIS:CSI16:2,2010-08-03T14:30:00Z,29.4012,-89.0355,10.0,27.714,11111222 
WAVCIS,ioos:station:WAVCIS:CSI16:2,2010-08-03T14:45:00Z,29.4012,-89.0355,10.0,27.815,11111222 